Location: Oberkirch
(48.5323°N, 8.0787°E)
Time: 17:07:43
(UTC+00:00)

Cosmos 2333 Rocket - Pass Details

Date: 08 November 2025
Orbit: 837 x 865 km, 70.8° (Epoch: 12 December)

Event Time Altitude Azimuth Distance (km) Brightness Sun altitude
Exits shadow 05:21:31 10° 311° (NW) 2,501 4.1 -10.8°
Reaches altitude 10° 05:21:32 10° 311° (NW) 2,498 4.1 -10.8°
Maximum altitude 05:23:41 12° 333° (NNW) 2,359 4.2 -10.4°
Drops below altitude 10° 05:25:50 10° 356° (N) 2,507 4.5 -10.1°
Sets 05:30:12 0° 26° (NNE) 3,453 5.5 -9.4°
